Time,TemperatureF,DewpointF,PressureIn,WindDirection,WindDirectionDegrees,WindSpeedMPH,WindSpeedGustMPH,Humidity,HourlyPrecipIn,Conditions,Clouds,dailyrainin,SolarRadiationWatts/m^2,SoftwareType,DateUTC
2013-03-20 00:02:00,34.0,21.0,-100.00,SSE,168,3.0,4.0,59,-99.99,,,-99.99,0.000000,,2013-03-20 06:02:00,
2013-03-20 00:12:00,33.0,21.0,-100.00,SSE,147,3.0,3.0,60,-99.99,,,-99.99,0.000000,,2013-03-20 06:12:00,
2013-03-20 00:22:00,33.0,21.0,-100.00,South,178,6.0,6.0,58,-99.99,,,-99.99,0.000000,,2013-03-20 06:22:00,
2013-03-20 00:32:00,33.0,21.0,-100.00,SSW,204,3.0,5.0,61,-99.99,,,-99.99,0.000000,,2013-03-20 06:32:00,
2013-03-20 00:42:00,32.0,24.0,-100.00,SE,139,3.0,4.0,73,-99.99,,,-99.99,0.000000,,2013-03-20 06:42:00,
2013-03-20 00:52:00,32.0,24.0,-100.00,SE,139,3.0,4.0,73,-99.99,,,-99.99,0.000000,,2013-03-20 06:52:00,
2013-03-20 01:02:00,32.0,22.0,-100.00,South,173,1.0,3.0,64,-99.99,,,-99.99,0.000000,,2013-03-20 07:02:00,
2013-03-20 01:11:00,34.0,20.0,-100.00,SW,227,3.0,4.0,56,-99.99,,,-99.99,0.000000,,2013-03-20 07:11:00,
2013-03-20 01:21:00,33.0,23.0,-100.00,South,177,0.0,2.0,66,-99.99,,,-99.99,0.000000,,2013-03-20 07:21:00,
2013-03-20 01:31:00,32.0,22.0,-100.00,SE,126,1.0,2.0,65,-99.99,,,-99.99,0.000000,,2013-03-20 07:31:00,
2013-03-20 01:42:00,33.0,22.0,-100.00,SSW,193,3.0,4.0,63,-99.99,,,-99.99,0.000000,,2013-03-20 07:42:00,
2013-03-20 01:52:00,33.0,22.0,-100.00,SSE,147,4.0,4.0,63,-99.99,,,-99.99,0.000000,,2013-03-20 07:52:00,
2013-03-20 02:02:00,32.0,22.0,-100.00,East,97,0.0,4.0,65,-99.99,,,-99.99,0.000000,,2013-03-20 08:02:00,
2013-03-20 02:12:00,32.0,23.0,-100.00,North,5,3.0,4.0,68,-99.99,,,-99.99,0.000000,,2013-03-20 08:12:00,
2013-03-20 02:22:00,32.0,21.0,-100.00,North,359,4.0,4.0,62,-99.99,,,-99.99,0.000000,,2013-03-20 08:22:00,
2013-03-20 02:32:00,32.0,22.0,-100.00,NW,323,2.0,4.0,65,-99.99,,,-99.99,0.000000,,2013-03-20 08:32:00,
2013-03-20 02:42:00,32.0,23.0,-100.00,NNW,345,4.0,4.0,71,-99.99,,,-99.99,0.000000,,2013-03-20 08:42:00,
2013-03-20 02:51:00,32.0,24.0,-100.00,NW,312,2.0,3.0,72,-99.99,,,-99.99,0.000000,,2013-03-20 08:51:00,
2013-03-20 03:02:00,32.0,24.0,-100.00,SSE,163,1.0,2.0,72,-99.99,,,-99.99,0.000000,,2013-03-20 09:02:00,
2013-03-20 03:11:00,31.0,23.0,-100.00,West,262,0.0,1.0,70,-99.99,,,-99.99,0.000000,,2013-03-20 09:11:00,
2013-03-20 03:32:00,31.0,22.0,-100.00,East,88,1.0,2.0,69,-99.99,,,-99.99,0.000000,,2013-03-20 09:32:00,
2013-03-20 03:42:00,31.0,23.0,-100.00,WNW,287,2.0,3.0,71,-99.99,,,-99.99,0.000000,,2013-03-20 09:42:00,
2013-03-20 04:02:00,31.0,24.0,-100.00,SSE,159,3.0,5.0,75,-99.99,,,-99.99,0.000000,,2013-03-20 10:02:00,
2013-03-20 04:12:00,32.0,24.0,-100.00,South,185,3.0,4.0,73,-99.99,,,-99.99,0.000000,,2013-03-20 10:12:00,
2013-03-20 04:32:00,32.0,25.0,-100.00,SW,226,2.0,4.0,75,-99.99,,,-99.99,0.000000,,2013-03-20 10:32:00,
2013-03-20 04:42:00,34.0,26.0,-100.00,SSE,166,5.0,7.0,71,-99.99,,,-99.99,0.000000,,2013-03-20 10:42:00,
2013-03-20 05:02:00,32.0,25.0,-100.00,South,182,6.0,7.0,73,-99.99,,,-99.99,0.000000,,2013-03-20 11:02:00,
2013-03-20 05:12:00,32.0,25.0,-100.00,SSE,168,7.0,7.0,73,-99.99,,,-99.99,0.000000,,2013-03-20 11:12:00,
2013-03-20 05:22:00,32.0,24.0,-100.00,SSE,167,4.0,4.0,72,-99.99,,,-99.99,0.000000,,2013-03-20 11:22:00,
2013-03-20 05:32:00,34.0,26.0,-100.00,South,185,3.0,4.0,70,-99.99,,,-99.99,0.000000,,2013-03-20 11:32:00,
2013-03-20 05:42:00,34.0,26.0,-100.00,South,185,3.0,4.0,70,-99.99,,,-99.99,0.000000,,2013-03-20 11:42:00,
2013-03-20 05:52:00,36.0,25.0,-100.00,South,182,4.0,5.0,64,-99.99,,,-99.99,0.000000,,2013-03-20 11:52:00,
2013-03-20 06:02:00,33.0,24.0,-100.00,SSE,153,3.0,6.0,69,-99.99,,,-99.99,0.000000,,2013-03-20 12:02:00,
2013-03-20 06:11:00,33.0,24.0,-100.00,SW,215,7.0,7.0,68,-99.99,,,-99.99,0.000000,,2013-03-20 12:11:00,
2013-03-20 06:22:00,33.0,24.0,-100.00,SW,215,7.0,7.0,68,-99.99,,,-99.99,0.000000,,2013-03-20 12:22:00,
2013-03-20 06:32:00,36.0,26.0,-100.00,SSW,193,7.0,9.0,65,-99.99,,,-99.99,0.000000,,2013-03-20 12:32:00,
2013-03-20 06:42:00,38.0,26.0,-100.00,South,174,7.0,10.0,63,-99.99,,,-99.99,0.000000,,2013-03-20 12:42:00,
2013-03-20 06:51:00,38.0,25.0,-100.00,SSE,152,8.0,10.0,60,-99.99,,,-99.99,0.000000,,2013-03-20 12:51:00,
2013-03-20 07:02:00,39.0,27.0,-100.00,ESE,104,11.0,17.0,61,-99.99,,,-99.99,0.000000,,2013-03-20 13:02:00,
2013-03-20 07:12:00,39.0,27.0,-100.00,ESE,104,11.0,17.0,61,-99.99,,,-99.99,0.000000,,2013-03-20 13:12:00,
2013-03-20 07:22:00,37.0,26.0,-100.00,SE,137,5.0,9.0,63,-99.99,,,-99.99,0.000000,,2013-03-20 13:22:00,
2013-03-20 07:32:00,36.0,24.0,-100.00,South,180,6.0,7.0,61,-99.99,,,-99.99,0.000000,,2013-03-20 13:32:00,
2013-03-20 07:42:00,37.0,24.0,-100.00,SSW,213,6.0,8.0,59,-99.99,,,-99.99,0.000000,,2013-03-20 13:42:00,
2013-03-20 07:52:00,38.0,25.0,-100.00,South,173,3.0,6.0,59,-99.99,,,-99.99,0.220000,,2013-03-20 13:52:00,
2013-03-20 08:02:00,37.0,25.0,-100.00,SSE,153,3.0,9.0,59,-99.99,,,-99.99,0.840000,,2013-03-20 14:02:00,
2013-03-20 08:12:00,36.0,24.0,-100.00,SSE,150,2.0,3.0,61,-99.99,,,-99.99,3.750000,,2013-03-20 14:12:00,
2013-03-20 08:22:00,35.0,25.0,-100.00,SE,146,4.0,5.0,68,-99.99,,,-99.99,12.680000,,2013-03-20 14:22:00,
2013-03-20 08:32:00,34.0,26.0,-100.00,SE,146,4.0,5.0,70,-99.99,,,-99.99,25.309999,,2013-03-20 14:32:00,
2013-03-20 08:42:00,35.0,26.0,-100.00,South,184,4.0,6.0,67,-99.99,,,-99.99,33.490002,,2013-03-20 14:42:00,
2013-03-20 08:52:00,36.0,26.0,-100.00,SSE,165,3.0,4.0,67,-99.99,,,-99.99,34.779999,,2013-03-20 14:52:00,
2013-03-20 09:02:00,37.0,26.0,-100.00,SSW,204,1.0,4.0,65,-99.99,,,-99.99,41.320000,,2013-03-20 15:02:00,
2013-03-20 09:12:00,37.0,27.0,-100.00,South,181,4.0,5.0,67,-99.99,,,-99.99,48.660000,,2013-03-20 15:12:00,
2013-03-20 09:22:00,37.0,27.0,-100.00,South,172,2.0,4.0,65,-99.99,,,-99.99,68.320000,,2013-03-20 15:22:00,
2013-03-20 09:33:00,38.0,26.0,-100.00,WSW,238,0.0,1.0,62,-99.99,,,-99.99,92.900002,,2013-03-20 15:33:00,
2013-03-20 09:43:00,39.0,28.0,-100.00,SSE,157,7.0,7.0,65,-99.99,,,-99.99,117.400002,,2013-03-20 15:43:00,
2013-03-20 09:52:00,40.0,27.0,-100.00,South,170,6.0,6.0,57,-99.99,,,-99.99,127.199997,,2013-03-20 15:52:00,
2013-03-20 10:02:00,42.0,27.0,-100.00,SSW,192,4.0,6.0,53,-99.99,,,-99.99,150.500000,,2013-03-20 16:02:00,
2013-03-20 10:12:00,43.0,26.0,-100.00,SSE,149,4.0,9.0,50,-99.99,,,-99.99,168.300003,,2013-03-20 16:12:00,
2013-03-20 10:22:00,45.0,27.0,-100.00,ESE,107,8.0,11.0,48,-99.99,,,-99.99,198.399994,,2013-03-20 16:22:00,
2013-03-20 10:32:00,46.0,26.0,-100.00,ESE,107,12.0,15.0,45,-99.99,,,-99.99,315.399994,,2013-03-20 16:32:00,
2013-03-20 10:42:00,46.0,27.0,-100.00,ESE,109,15.0,19.0,47,-99.99,,,-99.99,383.100006,,2013-03-20 16:42:00,
2013-03-20 10:52:00,47.0,27.0,-100.00,ESE,112,13.0,17.0,44,-99.99,,,-99.99,373.000000,,2013-03-20 16:52:00,
2013-03-20 11:02:00,49.0,27.0,-100.00,ESE,116,12.0,15.0,41,-99.99,,,-99.99,546.099976,,2013-03-20 17:02:00,
2013-03-20 11:21:00,50.0,26.0,-100.00,ESE,103,9.0,13.0,39,-99.99,,,-99.99,353.000000,,2013-03-20 17:21:00,
2013-03-20 11:32:00,50.0,26.0,-100.00,East,101,12.0,15.0,37,-99.99,,,-99.99,300.799988,,2013-03-20 17:32:00,
2013-03-20 11:42:00,50.0,27.0,-100.00,East,101,11.0,15.0,39,-99.99,,,-99.99,267.100006,,2013-03-20 17:42:00,
2013-03-20 11:52:00,50.0,27.0,-100.00,SSE,153,7.0,14.0,40,-99.99,,,-99.99,280.100006,,2013-03-20 17:52:00,
2013-03-20 12:02:00,51.0,27.0,-100.00,SE,137,12.0,16.0,38,-99.99,,,-99.99,315.299988,,2013-03-20 18:02:00,
2013-03-20 12:12:00,51.0,26.0,-100.00,ESE,103,11.0,19.0,37,-99.99,,,-99.99,277.700012,,2013-03-20 18:12:00,
2013-03-20 12:22:00,51.0,27.0,-100.00,ESE,107,11.0,17.0,38,-99.99,,,-99.99,252.699997,,2013-03-20 18:22:00,
2013-03-20 12:32:00,52.0,27.0,-100.00,East,98,12.0,15.0,37,-99.99,,,-99.99,270.299988,,2013-03-20 18:32:00,
2013-03-20 12:42:00,52.0,27.0,-100.00,East,91,10.0,16.0,36,-99.99,,,-99.99,272.899994,,2013-03-20 18:42:00,
2013-03-20 12:52:00,53.0,26.0,-100.00,East,82,11.0,15.0,34,-99.99,,,-99.99,326.700012,,2013-03-20 18:52:00,
2013-03-20 13:01:00,55.0,25.0,-100.00,East,81,5.0,8.0,31,-99.99,,,-99.99,399.600006,,2013-03-20 19:01:00,
2013-03-20 13:12:00,56.0,26.0,-100.00,ENE,78,7.0,8.0,31,-99.99,,,-99.99,358.200012,,2013-03-20 19:12:00,
2013-03-20 13:22:00,56.0,26.0,-100.00,ENE,73,8.0,10.0,31,-99.99,,,-99.99,422.899994,,2013-03-20 19:22:00,
2013-03-20 13:32:00,58.0,27.0,-100.00,East,101,8.0,9.0,30,-99.99,,,-99.99,433.799988,,2013-03-20 19:32:00,
2013-03-20 13:42:00,58.0,26.0,-100.00,ESE,104,10.0,12.0,29,-99.99,,,-99.99,408.600006,,2013-03-20 19:42:00,
2013-03-20 13:52:00,59.0,27.0,-100.00,ESE,104,10.0,12.0,28,-99.99,,,-99.99,484.000000,,2013-03-20 19:52:00,
2013-03-20 14:02:00,61.0,26.0,-100.00,East,93,7.0,12.0,26,-99.99,,,-99.99,553.900024,,2013-03-20 20:02:00,
2013-03-20 14:12:00,63.0,25.0,-100.00,SSE,161,3.0,6.0,22,-99.99,,,-99.99,762.299988,,2013-03-20 20:12:00,
2013-03-20 14:22:00,62.0,23.0,-100.00,SSW,208,10.0,20.0,22,-99.99,,,-99.99,473.299988,,2013-03-20 20:22:00,
2013-03-20 14:32:00,62.0,23.0,-100.00,SSW,192,16.0,21.0,22,-99.99,,,-99.99,600.000000,,2013-03-20 20:32:00,
2013-03-20 14:42:00,62.0,23.0,-100.00,SSW,192,16.0,21.0,22,-99.99,,,-99.99,600.000000,,2013-03-20 20:42:00,
2013-03-20 14:52:00,62.0,22.0,-100.00,SSW,193,19.0,22.0,21,-99.99,,,-99.99,383.799988,,2013-03-20 20:52:00,
2013-03-20 15:01:00,62.0,23.0,-100.00,SSW,193,14.0,21.0,22,-99.99,,,-99.99,420.000000,,2013-03-20 21:01:00,
2013-03-20 15:12:00,62.0,22.0,-100.00,SSW,199,19.0,22.0,21,-99.99,,,-99.99,474.600006,,2013-03-20 21:12:00,
2013-03-20 15:22:00,63.0,23.0,-100.00,SSW,202,12.0,19.0,21,-99.99,,,-99.99,482.399994,,2013-03-20 21:22:00,
2013-03-20 15:33:00,62.0,22.0,-100.00,SSW,193,13.0,24.0,21,-99.99,,,-99.99,420.899994,,2013-03-20 21:33:00,
2013-03-20 15:42:00,62.0,23.0,-100.00,SW,216,10.0,16.0,22,-99.99,,,-99.99,308.299988,,2013-03-20 21:42:00,
2013-03-20 15:52:00,62.0,22.0,-100.00,SW,231,12.0,18.0,21,-99.99,,,-99.99,306.299988,,2013-03-20 21:52:00,
2013-03-20 16:02:00,62.0,24.0,-100.00,SW,223,9.0,12.0,22,-99.99,,,-99.99,317.899994,,2013-03-20 22:02:00,
2013-03-20 16:12:00,62.0,22.0,-100.00,SW,236,9.0,11.0,21,-99.99,,,-99.99,276.500000,,2013-03-20 22:12:00,
2013-03-20 16:23:00,62.0,23.0,-100.00,SSW,203,8.0,13.0,22,-99.99,,,-99.99,293.000000,,2013-03-20 22:23:00,
2013-03-20 16:32:00,62.0,22.0,-100.00,SW,236,7.0,16.0,21,-99.99,,,-99.99,332.200012,,2013-03-20 22:32:00,
2013-03-20 16:42:00,62.0,23.0,-100.00,SSW,202,9.0,11.0,22,-99.99,,,-99.99,281.299988,,2013-03-20 22:42:00,
2013-03-20 16:52:00,62.0,24.0,-100.00,SSE,168,10.0,17.0,23,-99.99,,,-99.99,228.300003,,2013-03-20 22:52:00,
2013-03-20 17:02:00,62.0,24.0,-100.00,South,171,11.0,17.0,23,-99.99,,,-99.99,265.799988,,2013-03-20 23:02:00,
2013-03-20 17:12:00,62.0,23.0,-100.00,South,188,8.0,14.0,22,-99.99,,,-99.99,264.000000,,2013-03-20 23:12:00,
2013-03-20 17:22:00,62.0,24.0,-100.00,SSW,193,10.0,14.0,23,-99.99,,,-99.99,204.399994,,2013-03-20 23:22:00,
2013-03-20 17:32:00,62.0,25.0,-100.00,SSW,205,12.0,16.0,24,-99.99,,,-99.99,192.300003,,2013-03-20 23:32:00,
2013-03-20 17:42:00,62.0,25.0,-100.00,South,176,10.0,14.0,24,-99.99,,,-99.99,171.500000,,2013-03-20 23:42:00,
2013-03-20 17:52:00,62.0,24.0,-100.00,SSW,201,10.0,13.0,22,-99.99,,,-99.99,303.100006,,2013-03-20 23:52:00,
2013-03-20 18:02:00,63.0,25.0,-100.00,South,179,18.0,20.0,23,-99.99,,,-99.99,359.100006,,2013-03-21 00:02:00,
2013-03-20 18:12:00,63.0,26.0,-100.00,South,177,14.0,17.0,24,-99.99,,,-99.99,320.399994,,2013-03-21 00:12:00,
2013-03-20 18:22:00,63.0,25.0,-100.00,South,181,11.0,17.0,23,-99.99,,,-99.99,297.799988,,2013-03-21 00:22:00,
2013-03-20 18:32:00,62.0,25.0,-100.00,South,184,20.0,21.0,23,-99.99,,,-99.99,268.100006,,2013-03-21 00:32:00,
2013-03-20 18:42:00,62.0,26.0,-100.00,South,188,15.0,19.0,25,-99.99,,,-99.99,159.000000,,2013-03-21 00:42:00,
2013-03-20 18:52:00,62.0,25.0,-100.00,SSW,196,17.0,20.0,24,-99.99,,,-99.99,180.399994,,2013-03-21 00:52:00,
2013-03-20 19:02:00,61.0,26.0,-100.00,South,187,14.0,20.0,25,-99.99,,,-99.99,117.099998,,2013-03-21 01:02:00,
2013-03-20 19:11:00,61.0,25.0,-100.00,South,180,16.0,19.0,25,-99.99,,,-99.99,86.900002,,2013-03-21 01:11:00,
2013-03-20 19:22:00,61.0,26.0,-100.00,South,171,12.0,16.0,26,-99.99,,,-99.99,105.800003,,2013-03-21 01:22:00,
2013-03-20 19:32:00,60.0,27.0,-100.00,South,171,9.0,13.0,27,-99.99,,,-99.99,45.099998,,2013-03-21 01:32:00,
2013-03-20 19:42:00,59.0,28.0,-100.00,SSE,165,8.0,13.0,30,-99.99,,,-99.99,34.930000,,2013-03-21 01:42:00,
2013-03-20 19:52:00,58.0,27.0,-100.00,South,171,8.0,10.0,30,-99.99,,,-99.99,26.139999,,2013-03-21 01:52:00,
2013-03-20 20:22:00,55.0,28.0,-100.00,SE,142,5.0,6.0,34,-99.99,,,-99.99,1.160000,,2013-03-21 02:22:00,
2013-03-20 20:32:00,55.0,28.0,-100.00,SSE,149,6.0,6.0,35,-99.99,,,-99.99,0.200000,,2013-03-21 02:32:00,
2013-03-20 20:42:00,55.0,28.0,-100.00,SSE,149,6.0,6.0,35,-99.99,,,-99.99,0.200000,,2013-03-21 02:42:00,
2013-03-20 20:51:00,55.0,28.0,-100.00,SSE,149,6.0,6.0,35,-99.99,,,-99.99,0.200000,,2013-03-21 02:51:00,
2013-03-20 21:02:00,55.0,29.0,-100.00,South,181,3.0,4.0,38,-99.99,,,-99.99,0.000000,,2013-03-21 03:02:00,
2013-03-20 21:12:00,54.0,29.0,-100.00,WNW,286,10.0,12.0,38,-99.99,,,-99.99,0.010000,,2013-03-21 03:12:00,
2013-03-20 21:21:00,56.0,32.0,-100.00,NW,311,10.0,16.0,39,-99.99,,,-99.99,0.000000,,2013-03-21 03:21:00,
2013-03-20 21:32:00,55.0,33.0,-100.00,NW,313,15.0,23.0,44,-99.99,,,-99.99,0.010000,,2013-03-21 03:32:00,
2013-03-20 21:43:00,51.0,38.0,-100.00,NW,314,7.0,14.0,60,-99.99,,,-99.99,0.010000,,2013-03-21 03:43:00,
2013-03-20 21:52:00,51.0,38.0,-100.00,NW,314,7.0,14.0,60,-99.99,,,-99.99,0.010000,,2013-03-21 03:52:00,
2013-03-20 22:02:00,50.0,39.0,-100.00,NW,313,16.0,20.0,64,-99.99,,,-99.99,0.000000,,2013-03-21 04:02:00,
2013-03-20 22:12:00,50.0,40.0,-100.00,North,354,6.0,6.0,69,-99.99,,,-99.99,0.000000,,2013-03-21 04:12:00,
2013-03-20 22:22:00,50.0,40.0,-100.00,North,354,6.0,6.0,69,-99.99,,,-99.99,0.000000,,2013-03-21 04:22:00,
2013-03-20 22:32:00,49.0,39.0,-100.00,NE,34,5.0,5.0,68,-99.99,,,-99.99,0.000000,,2013-03-21 04:32:00,
2013-03-20 22:43:00,48.0,38.0,-100.00,NE,55,7.0,11.0,68,-99.99,,,-99.99,0.000000,,2013-03-21 04:43:00,
2013-03-20 23:02:00,48.0,40.0,-100.00,East,88,8.0,10.0,73,-99.99,,,-99.99,0.000000,,2013-03-21 05:02:00,
2013-03-20 23:12:00,47.0,39.0,-100.00,ESE,118,2.0,7.0,73,-99.99,,,-99.99,0.000000,,2013-03-21 05:12:00,
2013-03-20 23:22:00,47.0,40.0,-100.00,SW,228,8.0,9.0,74,-99.99,,,-99.99,0.000000,,2013-03-21 05:22:00,
2013-03-20 23:32:00,47.0,39.0,-100.00,NW,312,2.0,6.0,74,-99.99,,,-99.99,0.000000,,2013-03-21 05:32:00,
2013-03-20 23:43:00,47.0,39.0,-100.00,West,274,1.0,2.0,74,-99.99,,,-99.99,0.000000,,2013-03-21 05:43:00,
2013-03-20 23:51:00,46.0,39.0,-100.00,North,356,2.0,3.0,76,-99.99,,,-99.99,0.000000,,2013-03-21 05:51:00,